User: anonymous   Login
Location: Caltech
(34.1382°N, 118.1253°W)
Time: 06:11:00
(UTC-07:00)
Language:

Gbstr 26 Del rocket - Orbit

View from above orbital plane
View from above orbital plane
View from above satellite
View from above satellite

Ground track
Ground track

The orbit data is extracted from the following two-line orbital elements,

1 25876U 99041E   15089.95150853  .00003340  00000-0  61560-3 0  9991
2 25876 051.7640 267.7895 0536666 190.7707 168.1343 14.03020884800958
Epoch (UTC): 30 March 2015 22:50:10
Eccentricity: 0.0536666
inclination: 51.7640°
perigee height: 493 km
apogee height: 1273 km
right ascension of ascending node: 267.7895°
argument of perigee: 190.7707°
revolutions per day: 14.03020884
mean anomaly at epoch: 168.1343°
orbit number at epoch: 80095

The dashed part of the orbit path shows where the satellite is in the earth's shadow,  

DLR